星链-36497(STARLINK-36497)

导读

STARLINK-36497是美国SpaceX公司星链星座的卫星,于2026年1月4日,由猎鹰9号火箭在卡纳维拉尔角太空军基地,随星链6-88任务发射入轨。它属于星链V2迷你优化版卫星,运行在近地轨道,旨在为全球提供高速互联网服务,助力星链覆盖更多区域,拓展该星座全球卫星互联网的组网能力,目前已正常入轨运行。

Basic Information
目录编号:
67323
目录名称:
STARLINK-36497
国际标识:
2026-002U
轨道中心:
EARTH
卫星名称:
星链-36497
卫星全名:
星链-36497(STARLINK-36497)
卫星状态:
在轨 (已飞行244 天)
发射日期:
2026-01-04 UTC
国别 :
美国 (US)
星等 :
--
Orbit Information
数据来源 国际轨道数据
星历时间: 2026-09-05T00:25:25+0800
17小时前
查看轨道信息
半长轴: 6861.151km
偏心率: 0.000122
轨道倾角: 43.000°
近地点辐角 257.171°
升交点赤经 34.410°
平近点角 102.900°
近地点: 482.176km
远地点: 483.852km
周期: 94.266分钟
每日圈数: 15.275918
Detailed Information
固有亮度:
5
最大亮度:
2.5
卫星平台:
Starlink V1.0
覆盖范围:
全球
运营商:
太空探索技术公司
运营商所在国:
美国
制造商(研发单位):
太空探索技术公司
制造商所在国:
美国
使用方式:
暂无
Satellite Introduction
Starlink 计划是 SpaceX 推出的全球卫星互联网项目,通过发射低轨道卫星,为全球尤其是偏远地区提供高速、低延迟的互联网服务。自 2019 年起,Starlink 已部署数千颗卫星,旨在缩小全球数字鸿沟,推动互联网普及。该项目还为军事、航空等行业提供通信支持,带来广泛经济效益。
2D Orbit Map
3D Orbit Map
Orbit Altitude Analysis Chart
Orbit Inclination Analysis Chart
Orbit Comprehensive Analysis Chart
View Comprehensive Chart
Conjunction Data List
Event ID Objects TCA Miss Dist (km) Collision Risk Probability Collision Risk Index (CRI) Action
CDM_260907-123405-705706-732321
2026-09-07T
12:34:55+0000
0.406 km
远距离
2.543229E-4 高风险 0.83
CDM_260907-105905-851606-732321
2026-09-07T
10:59:34+0000
0.846 km
远距离
3.552205E-5 中风险 0.66
CDM_260907-143005-887406-732321
2026-09-07T
14:30:53+0000
0.815 km
远距离
3.005917E-5 中风险 0.65
CDM_260907-061705-917306-732321
2026-09-07T
06:17:46+0000
1.006 km
极远距离
1.992341E-5 中风险 0.61
CDM_260903-091105-637506-732321
2026-09-03T
09:11:06+0000
1.235 km
极远距离
9.428361E-6 低风险 0.54
CDM_260907-044305-917306-732321
2026-09-07T
04:43:37+0000
1.493 km
极远距离
5.163699E-6 低风险 0.49
CDM_260907-123305-851606-732321
2026-09-07T
12:33:44+0000
1.746 km
极远距离
3.162852E-6 低风险 0.45
CDM_260907-110005-705706-732321
2026-09-07T
11:00:46+0000
1.783 km
极远距离
3.023619E-6 低风险 0.45
CDM_260907-160505-887406-732321
2026-09-07T
16:05:02+0000
1.908 km
极远距离
1.910953E-6 低风险 0.41
CDM_260907-140905-705706-732321
2026-09-07T
14:09:04+0000
2.619 km
极远距离
1.283848E-6 低风险 0.37